EW6470 Weather Reports


Display with metric or nautical units.
time (UTC)temp
F
wind
direction
speed
MPH
gust
MPH
rain 1hr
in
rain 24hr
in
rain mn
in
humidity
%
barometer
mb
20260502164012 37 240 0.0 2.0 0.00 0.06 0.03 93 1013.0
20260502163509 37 0 0.0 2.0 0.01 0.06 0.03 93 1013.1
20260502163039 37 0 0.0 1.0 0.01 0.06 0.03 94 1013.1
20260502162510 36 0 0.0 1.0 0.01 0.06 0.03 94 1013.0
20260502162011 36 0 0.0 1.0 0.01 0.06 0.03 94 1013.0
20260502161528 36 0 0.0 1.0 0.01 0.06 0.03 93 1012.7
20260502161010 36 0 0.0 1.0 0.02 0.06 0.03 93 1012.6
20260502160510 36 0 0.0 1.0 0.02 0.06 0.03 93 1012.8
20260502152010 36 280 0.0 2.0 0.01 0.05 0.02 91 1012.3
20260502151547 36 280 0.0 2.0 0.01 0.05 0.02 91 1012.1
20260502151010 36 271 0.0 1.0 0.00 0.04 0.01 91 1012.1
20260502150510 36 273 0.0 1.0 0.00 0.04 0.01 91 1011.9
20260502130513 36 0 0.0 1.0 0.00 0.04 0.01 91 1009.6
20260502123511 36 0 0.0 1.0 0.00 0.04 0.01 90 1009.3
20260502123036 36 284 0.0 1.0 0.00 0.04 0.01 90 1009.4
20260502122511 36 0 0.0 0.0 0.00 0.04 0.01 89 1009.3
20260502122010 36 0 0.0 0.0 0.00 0.04 0.01 89 1009.4
20260502121530 36 0 0.0 0.0 0.00 0.04 0.01 89 1009.2
20260502121010 36 0 0.0 0.0 0.00 0.04 0.01 88 1009.3
20260502120507 36 0 0.0 0.0 0.00 0.04 0.01 88 1009.3
20260502115508 36 0 0.0 0.0 0.00 0.04 0.01 88 1009.2
20260502115009 36 0 0.0 0.0 0.00 0.04 0.01 88 1009.2
20260502114527 36 0 0.0 0.0 0.00 0.04 0.01 87 1009.2
20260502114009 36 0 0.0 0.0 0.00 0.04 0.01 87 1009.1
20260502113512 37 0 0.0 0.0 0.00 0.04 0.01 87 1009.0
20260502113026 37 0 0.0 1.0 0.00 0.04 0.01 87 1009.0
20260502112508 37 0 0.0 1.0 0.00 0.04 0.01 86 1008.8
20260502112010 37 284 0.0 0.0 0.00 0.04 0.01 86 1008.6
20260502111530 37 0 0.0 1.0 0.00 0.04 0.01 85 1008.8
20260502111007 37 0 0.0 1.0 0.01 0.04 0.01 84 1008.8
20260502110510 37 0 0.0 1.0 0.01 0.04 0.01 84 1008.7
20260502110028 37 0 0.0 0.0 0.01 0.04 0.01 84 1008.6
20260502105511 38 0 0.0 0.0 0.01 0.04 0.01 83 1008.6
20260502105010 38 0 0.0 0.0 0.01 0.04 0.01 81 1008.5
20260502104532 38 0 0.0 0.0 0.01 0.04 0.01 80 1008.4
20260502104009 39 0 0.0 2.0 0.01 0.04 0.01 79 1008.3
20260502103510 39 0 0.0 2.0 0.01 0.04 0.01 78 1008.3
20260502103029 40 275 0.0 2.0 0.01 0.04 0.01 75 1008.2
20260502102509 40 0 0.0 3.0 0.01 0.04 0.01 72 1008.0
20260502102009 40 126 0.0 3.0 0.01 0.04 0.01 72 1007.8
20260502101527 39 120 1.0 3.0 0.01 0.04 0.01 73 1007.9
20260502101009 39 0 0.0 1.0 0.00 0.03 0.00 77 1007.7
20260502100509 39 296 0.0 1.0 0.00 0.03 0.00 75 1007.6
20260502091530 39 134 0.0 2.0 0.00 0.03 0.00 73 1006.5
20260502091011 39 125 0.0 3.0 0.00 0.03 0.00 73 1006.2
20260502090509 39 0 0.0 3.0 0.00 0.03 0.00 74 1006.2
20260502071535 39 74 1.0 6.0 0.00 0.03 0.03 79 1004.5
20260502071010 39 0 1.0 7.0 0.00 0.03 0.03 78 1004.5
20260502070508 39 96 1.0 7.0 0.00 0.03 0.03 78 1004.4
20260502070030 39 99 1.0 6.0 0.00 0.03 0.03 78 1004.3
20260502065511 39 167 1.0 6.0 0.00 0.03 0.03 78 1004.2
20260502065010 39 66 1.0 8.0 0.00 0.03 0.03 79 1004.2
20260502064530 39 94 1.0 8.0 0.00 0.03 0.03 79 1004.0
20260502064016 39 90 1.0 5.0 0.00 0.03 0.03 80 1003.9
20260502063510 39 0 1.0 5.0 0.00 0.03 0.03 80 1003.8
20260502063028 39 118 1.0 5.0 0.01 0.03 0.03 80 1003.9
20260502062514 38 80 1.0 4.0 0.01 0.03 0.03 81 1003.8
20260502062010 38 113 1.0 3.0 0.01 0.03 0.03 82 1003.8
20260502061536 38 86 0.0 4.0 0.01 0.03 0.03 83 1003.7
20260502061010 38 124 0.0 5.0 0.01 0.03 0.03 83 1003.5
20260502060510 38 57 1.0 6.0 0.02 0.03 0.03 83 1003.5
20260502060029 38 71 1.0 6.0 0.02 0.03 0.03 83 1003.5
20260502055511 38 63 2.0 6.0 0.02 0.03 0.03 83 1003.3
20260502055010 38 25 1.0 3.0 0.03 0.03 0.03 84 1003.4
20260502054532 38 112 0.0 4.0 0.03 0.03 0.03 83 1003.3
20260502054012 38 78 1.0 4.0 0.03 0.03 0.03 84 1003.2
20260502053510 38 92 1.0 4.0 0.02 0.02 0.02 85 1003.1
20260502053030 38 141 0.0 4.0 0.02 0.02 0.02 86 1003.1
20260502052509 38 123 1.0 4.0 0.02 0.02 0.02 85 1003.0
20260502052011 38 120 1.0 4.0 0.02 0.02 0.02 86 1003.1
20260502051532 38 5 0.0 4.0 0.02 0.02 0.02 86 1003.1
20260502051009 38 43 1.0 4.0 0.02 0.02 0.02 85 1003.0
20260502050517 38 54 1.0 4.0 0.01 0.01 0.01 85 1003.0
20260502050030 38 79 0.0 7.0 0.01 0.01 0.01 84 1002.7
20260502045510 39 348 1.0 7.0 0.01 0.01 0.01 81 1002.8
20260502045011 39 80 1.0 4.0 0.00 0.00 0.00 81 1002.8
20260502044528 39 66 0.0 3.0 0.00 0.00 0.00 81 1002.5
20260502044017 39 0 0.0 4.0 0.00 0.00 0.00 81 1002.3
20260502043511 40 243 0.0 5.0 0.00 0.00 0.00 79 1002.4
20260502043030 40 119 1.0 5.0 0.00 0.00 0.00 78 1002.5
20260502042512 40 74 1.0 3.0 0.00 0.00 0.00 76 1002.2
20260502042017 40 117 0.0 4.0 0.00 0.00 0.00 74 1002.1
20260502041531 41 118 1.0 7.0 0.00 0.00 0.00 73 1002.2
20260502041009 41 0 0.0 7.0 0.00 0.00 0.00 73 1002.0
20260502040511 41 132 2.0 12.0 0.00 0.00 0.00 72 1002.0
20260502040028 41 138 3.0 12.0 0.00 0.00 0.00 71 1001.8
20260502035510 41 152 3.0 8.0 0.00 0.00 0.00 70 1001.7
20260502035014 41 0 1.0 7.0 0.00 0.00 0.00 70 1001.5
20260502034528 41 117 2.0 9.0 0.00 0.00 0.00 70 1001.6
20260502034010 41 61 2.0 9.0 0.00 0.00 0.00 70 1001.5
20260502033510 41 126 2.0 9.0 0.00 0.00 0.00 69 1001.5
20260502033032 41 90 3.0 8.0 0.00 0.00 0.00 69 1001.4
20260502032511 42 49 2.0 8.0 0.00 0.00 0.00 69 1001.4
20260502032009 42 78 2.0 6.0 0.00 0.00 0.00 69 1001.4
20260502031533 42 148 2.0 6.0 0.00 0.00 0.00 68 1001.3
20260502031012 42 70 2.0 9.0 0.00 0.00 0.00 68 1001.2
20260502030511 42 46 3.0 9.0 0.00 0.00 0.00 67 1001.2
20260502030028 42 248 1.0 7.0 0.00 0.00 0.00 66 1001.2
20260502025509 42 97 2.0 12.0 0.00 0.00 0.00 66 1001.2
20260502025010 42 101 2.0 12.0 0.00 0.00 0.00 65 1001.2
20260502024532 42 115 3.0 10.0 0.00 0.00 0.00 65 1001.1
20260502024013 42 141 1.0 8.0 0.00 0.00 0.00 65 1001.2
20260502023511 42 109 2.0 5.0 0.00 0.00 0.00 65 1001.3
20260502023030 42 89 1.0 4.0 0.00 0.00 0.00 65 1001.5
20260502022508 42 13 1.0 6.0 0.00 0.00 0.00 65 1001.4
20260502022012 42 78 1.0 7.0 0.00 0.00 0.00 64 1001.5
20260502021528 42 84 2.0 8.0 0.00 0.00 0.00 64 1001.5
20260502021014 42 74 1.0 8.0 0.00 0.00 0.00 64 1001.5
20260502020523 42 116 2.0 11.0 0.00 0.00 0.00 64 1001.6
20260502020030 43 148 2.0 11.0 0.00 0.00 0.00 63 1001.5
20260502015510 43 111 4.0 11.0 0.00 0.00 0.00 62 1001.3
20260502015010 43 104 2.0 8.0 0.00 0.00 0.00 62 1001.4
20260502014532 43 311 2.0 12.0 0.00 0.00 0.00 61 1001.4
20260502014011 43 77 3.0 12.0 0.00 0.00 0.00 61 1001.4
20260502013508 43 90 4.0 12.0 0.00 0.00 0.00 60 1001.6
20260502013030 43 113 2.0 9.0 0.00 0.00 0.00 60 1001.5
20260502012509 43 73 2.0 9.0 0.00 0.00 0.00 60 1001.6
20260502012010 43 90 2.0 8.0 0.00 0.00 0.00 59 1001.7
20260502011532 43 155 2.0 8.0 0.00 0.00 0.00 59 1001.6
20260502011009 44 78 2.0 8.0 0.00 0.00 0.00 58 1001.6
20260502010509 44 116 1.0 9.0 0.00 0.00 0.00 57 1001.6
20260502010030 44 92 2.0 9.0 0.00 0.00 0.00 57 1001.8
20260502005510 44 82 2.0 11.0 0.00 0.00 0.00 56 1001.7
20260502005012 44 138 3.0 13.0 0.00 0.00 0.00 57 1001.9
20260502004530 44 159 3.0 13.0 0.00 0.00 0.00 57 1002.0
20260502004008 43 82 2.0 11.0 0.00 0.00 0.00 57 1002.1
20260502003509 44 16 3.0 11.0 0.00 0.00 0.00 57 1002.1
20260502003029 44 86 3.0 11.0 0.00 0.00 0.00 57 1002.4
20260502002507 44 86 4.0 12.0 0.00 0.00 0.00 57 1002.4
20260502002012 44 136 5.0 12.0 0.00 0.00 0.00 56 1002.1
20260502001529 44 66 2.0 12.0 0.00 0.00 0.00 56 1002.2
20260502001009 44 103 3.0 12.0 0.00 0.00 0.00 56 1002.4
20260502000508 44 153 4.0 12.0 0.00 0.00 0.00 55 1002.3
20260502000029 44 97 3.0 10.0 0.00 0.00 0.00 55 1002.5
20260501235509 44 99 4.0 10.0 0.00 0.00 0.00 55 1002.6
20260501235010 44 137 3.0 12.0 0.00 0.00 0.00 55 1002.5
20260501234531 44 110 3.0 13.0 0.00 0.00 0.00 55 1002.6
20260501234007 44 123 3.0 13.0 0.00 0.00 0.00 54 1002.8
20260501233509 44 122 2.0 11.0 0.00 0.00 0.00 54 1002.8
20260501233030 44 24 3.0 10.0 0.00 0.00 0.00 53 1002.8
20260501232510 44 46 1.0 10.0 0.00 0.00 0.00 53 1002.8
20260501232011 45 71 1.0 9.0 0.00 0.00 0.00 53 1003.0
20260501231527 45 142 3.0 9.0 0.00 0.00 0.00 52 1003.4
20260501231011 45 98 4.0 15.0 0.00 0.00 0.00 52 1003.2
20260501230512 45 48 3.0 16.0 0.00 0.00 0.00 52 1003.1
20260501230028 45 140 4.0 16.0 0.00 0.00 0.00 52 1003.2
20260501225511 45 321 5.0 16.0 0.00 0.00 0.00 52 1003.1
20260501225010 44 113 4.0 11.0 0.00 0.00 0.00 52 1003.2
20260501224531 44 84 3.0 10.0 0.00 0.00 0.00 53 1003.2
20260501224012 44 162 3.0 13.0 0.00 0.00 0.00 53 1003.5
20260501223509 44 90 4.0 13.0 0.00 0.00 0.00 54 1003.3
20260501223033 44 236 5.0 13.0 0.00 0.00 0.00 54 1003.3
20260501222514 44 86 4.0 13.0 0.00 0.00 0.00 54 1003.3
20260501222010 44 109 5.0 13.0 0.00 0.00 0.00 54 1003.4
20260501221530 44 236 2.0 17.0 0.00 0.00 0.00 55 1003.6
20260501221010 43 90 4.0 17.0 0.00 0.00 0.00 55 1003.7
20260501220514 43 105 3.0 13.0 0.00 0.00 0.00 56 1003.9
20260501220030 43 109 4.0 15.0 0.00 0.00 0.00 56 1003.8
20260501215511 43 63 3.0 15.0 0.00 0.00 0.00 56 1003.9
20260501215010 43 127 5.0 15.0 0.00 0.00 0.00 55 1003.8
20260501214535 43 117 4.0 14.0 0.00 0.00 0.00 55 1004.0
20260501214007 43 100 3.0 19.0 0.00 0.00 0.00 55 1003.8
20260501213511 43 146 4.0 19.0 0.00 0.00 0.00 55 1004.0
20260501213030 43 163 4.0 15.0 0.00 0.00 0.00 56 1004.3
20260501212509 43 28 6.0 15.0 0.00 0.00 0.00 56 1004.0
20260501212011 43 85 2.0 12.0 0.00 0.00 0.00 56 1003.9
20260501211531 43 72 5.0 16.0 0.00 0.00 0.00 56 1004.3
20260501211010 43 94 3.0 16.0 0.00 0.00 0.00 56 1004.1
20260501210509 43 120 4.0 18.0 0.00 0.00 0.00 56 1004.1
20260501210030 43 74 5.0 18.0 0.00 0.00 0.00 55 1004.4
20260501205510 43 61 3.0 17.0 0.00 0.00 0.00 55 1004.4
20260501205012 43 57 5.0 12.0 0.00 0.00 0.00 54 1004.6
20260501204539 43 140 4.0 14.0 0.00 0.00 0.00 54 1004.5
20260501204014 43 133 3.0 14.0 0.00 0.00 0.00 55 1004.7
20260501203511 43 82 4.0 13.0 0.00 0.00 0.00 55 1004.6
20260501203027 43 117 4.0 13.0 0.00 0.00 0.00 55 1004.5
20260501202511 43 107 4.0 12.0 0.00 0.00 0.00 54 1004.6
20260501202012 43 109 4.0 10.0 0.00 0.00 0.00 54 1004.8
20260501201529 43 133 2.0 10.0 0.00 0.00 0.00 53 1004.6
20260501201010 43 68 2.0 10.0 0.00 0.00 0.00 53 1004.9
20260501200509 43 127 5.0 10.0 0.00 0.00 0.00 53 1005.1
20260501200028 43 74 3.0 12.0 0.00 0.00 0.00 53 1005.1
20260501195511 43 161 3.0 13.0 0.00 0.00 0.00 53 1005.0
20260501195011 43 137 3.0 13.0 0.00 0.00 0.00 53 1005.2
20260501194528 43 51 4.0 13.0 0.00 0.00 0.00 52 1005.3
20260501194011 43 10 2.0 12.0 0.00 0.00 0.00 52 1005.3
20260501193510 43 163 4.0 12.0 0.00 0.00 0.00 52 1005.1
20260501193031 44 117 4.0 10.0 0.00 0.00 0.00 52 1005.2
20260501192510 44 67 4.0 13.0 0.00 0.00 0.00 51 1005.0
20260501192009 44 112 3.0 13.0 0.00 0.00 0.00 51 1004.9
20260501191528 44 141 4.0 13.0 0.00 0.00 0.00 50 1005.1
20260501191010 44 128 4.0 16.0 0.00 0.00 0.00 50 1004.9
20260501190513 44 71 6.0 16.0 0.00 0.00 0.00 49 1004.9
20260501190030 44 138 1.0 11.0 0.00 0.00 0.00 50 1005.0
20260501185512 44 56 4.0 17.0 0.00 0.00 0.00 50 1005.1
20260501185016 44 130 5.0 17.0 0.00 0.00 0.00 49 1005.1
20260501184530 44 91 5.0 15.0 0.00 0.00 0.00 49 1005.1
20260501184009 44 116 5.0 15.0 0.00 0.00 0.00 49 1005.1
20260501183511 44 76 5.0 14.0 0.00 0.00 0.00 49 1005.1
20260501183032 44 145 5.0 13.0 0.00 0.00 0.00 49 1005.1
20260501182509 44 141 5.0 13.0 0.00 0.00 0.00 48 1005.1
20260501182011 44 139 4.0 15.0 0.00 0.00 0.00 48 1004.9
20260501181530 44 127 6.0 16.0 0.00 0.00 0.00 48 1004.8
20260501181012 44 103 3.0 16.0 0.00 0.00 0.00 49 1005.0
20260501180510 44 108 5.0 16.0 0.00 0.00 0.00 48 1004.9
20260501180034 44 105 4.0 13.0 0.00 0.00 0.00 48 1005.3
20260501175510 44 126 4.0 13.0 0.00 0.00 0.00 49 1005.3
20260501175016 44 142 5.0 13.0 0.00 0.00 0.00 48 1005.2
20260501174539 44 73 4.0 12.0 0.00 0.00 0.00 49 1005.3
20260501174008 44 221 5.0 12.0 0.00 0.00 0.00 48 1005.4
20260501173509 43 126 4.0 12.0 0.00 0.00 0.00 48 1005.4
20260501173028 43 91 5.0 14.0 0.00 0.00 0.00 48 1005.3
20260501172509 43 101 5.0 14.0 0.00 0.00 0.00 48 1005.7
20260501172011 43 75 6.0 15.0 0.00 0.00 0.00 49 1005.6
20260501171527 43 114 7.0 15.0 0.00 0.00 0.00 49 1005.4
20260501171013 43 142 5.0 13.0 0.00 0.00 0.00 49 1005.5
20260501170511 43 105 5.0 14.0 0.00 0.00 0.00 49 1006.0
20260501170027 43 148 5.0 14.0 0.00 0.00 0.00 50 1006.3
20260501165513 43 133 2.0 18.0 0.00 0.00 0.00 51 1006.3
20260501165008 43 86 5.0 18.0 0.00 0.00 0.00 50 1006.2
20260501164528 43 111 4.0 14.0 0.00 0.00 0.00 51 1006.4